, LA

(GMT )
South Marsh 268

Weather History for KSCF - January, 2014

Change the Weather History Date:

Tuesday, January 28, 2014

  Actual Average Record
Temperature  
Mean Temperature 40 °F -  
Max Temperature 48 °F - - ()
Min Temperature 32 °F - - ()
Degree Days  
Heating Degree Days 25    
Moisture  
Dew Point 28 °F    
Average Humidity 72    
Maximum Humidity 93    
Minimum Humidity 50    
Precipitation  
Precipitation 0.00 in - - ()
Sea Level Pressure  
Sea Level Pressure 30.19 in    
Wind  
Wind Speed 25 mph (NNE)    
Max Wind Speed 33 mph    
Max Gust Speed 41 mph    
Visibility 8 miles    
Events      
Averages and records for this station are not official NWS values.
T = Trace of Precipitation, MM = Missing Value Source: NWS Daily Summary

Daily Weather History Graph

Daily Weather History Graph

Search for Another Location

Airport or City:

Trip Planner

Search our weather history database for the weather conditions in past years. The results will help you decide how hot, cold, wet, or windy it might be!

Date:

Astronomy

Jan. 28, 2014 Rise Set
Actual Time 6:58 AM CST 5:42 PM CST
Civil Twilight 6:33 AM CST 6:07 PM CST
Nautical Twilight 6:04 AM CST 6:36 PM CST
Astronomical Twilight 5:36 AM CST 7:04 PM CST
Moon 4:37 AM CST (1/28) 3:35 PM CST (1/28)
Length of Visible Light 11h 34m
Length of Day
10h 44m
Waning Crescent, 7% of the Moon is Illuminated
Jan 28
Waning Crescent
Jan 30
New
Feb 6
First Quarter
Feb 14
Full
Feb 22
Last Quarter

Hourly Weather History & Observations

Time (CST) Temp. Windchill Dew Point Humidity Pressure Visibility Wind Dir Wind Speed Gust Speed Precip Events Conditions
12:15 AM 48.2 °F - 33.8 °F 58% 30.04 in 10.0 mi NNE 25.3 mph - N/A   Overcast
12:35 AM 48.2 °F - 32.0 °F 54% 30.04 in 10.0 mi NE 26.5 mph - N/A   Overcast
12:55 AM 48.2 °F - 32.0 °F 54% 30.05 in 10.0 mi NNE 27.6 mph - N/A   Overcast
1:15 AM 48.2 °F - 32.0 °F 54% 30.06 in 10.0 mi NNE 24.2 mph - N/A   Overcast
1:35 AM 46.4 °F 37.9 °F 32.0 °F 57% 30.06 in 10.0 mi NNE 25.3 mph - N/A   Overcast
1:55 AM 46.4 °F 38.1 °F 30.2 °F 53% 30.06 in 10.0 mi NNE 24.2 mph 31.1 mph N/A   Overcast
2:15 AM 46.4 °F 37.9 °F 30.2 °F 53% 30.06 in 10.0 mi NNE 25.3 mph - N/A   Overcast
2:35 AM 46.4 °F 37.9 °F 28.4 °F 50% 30.05 in 10.0 mi NNE 25.3 mph - N/A   Overcast
2:55 AM 44.6 °F 35.9 °F 28.4 °F 53% 30.05 in 10.0 mi NNE 23.0 mph 29.9 mph N/A   Overcast
3:15 AM 44.6 °F 35.9 °F 28.4 °F 53% 30.06 in 10.0 mi NNE 23.0 mph - N/A   Overcast
3:35 AM 44.6 °F 36.1 °F 28.4 °F 53% 30.08 in 10.0 mi North 21.9 mph 27.6 mph N/A   Overcast
3:55 AM 44.6 °F 35.9 °F 28.4 °F 53% 30.07 in 10.0 mi North 23.0 mph 29.9 mph N/A   Overcast
4:15 AM 44.6 °F 36.1 °F 28.4 °F 53% 30.09 in 10.0 mi North 21.9 mph 27.6 mph N/A   Overcast
4:35 AM 42.8 °F 33.3 °F 26.6 °F 53% 30.09 in 10.0 mi North 24.2 mph 32.2 mph N/A   Overcast
4:55 AM 42.8 °F 32.9 °F 26.6 °F 53% 30.09 in 10.0 mi North 26.5 mph 33.4 mph N/A   Overcast
5:15 AM 41.0 °F 30.5 °F 26.6 °F 57% 30.08 in 9.0 mi NNE 26.5 mph 33.4 mph N/A   Overcast
5:35 AM 41.0 °F 30.0 °F 26.6 °F 57% 30.11 in 10.0 mi NNE 28.8 mph - N/A   Overcast
5:55 AM 41.0 °F 30.2 °F 26.6 °F 57% 30.11 in 9.0 mi NNE 27.6 mph - N/A   Overcast
6:15 AM 41.0 °F 30.2 °F 26.6 °F 57% 30.12 in 10.0 mi NNE 27.6 mph - N/A   Overcast
6:35 AM 41.0 °F 30.5 °F 24.8 °F 53% 30.11 in 10.0 mi NNE 26.5 mph - N/A   Overcast
6:55 AM 41.0 °F 30.5 °F 24.8 °F 53% 30.13 in 10.0 mi NNE 26.5 mph - N/A   Overcast
7:15 AM 41.0 °F 31.1 °F 26.6 °F 57% 30.16 in 9.0 mi NNE 23.0 mph - N/A   Overcast
7:35 AM 39.2 °F 28.7 °F 26.6 °F 61% 30.17 in 9.0 mi North 23.0 mph 28.8 mph N/A   Overcast
7:55 AM 39.2 °F 29.0 °F 26.6 °F 61% 30.19 in 8.0 mi North 21.9 mph - N/A   Overcast
8:15 AM 39.2 °F 29.0 °F 24.8 °F 56% 30.20 in 9.0 mi North 21.9 mph 28.8 mph N/A   Overcast
8:35 AM 37.4 °F 26.1 °F 26.6 °F 65% 30.21 in 8.0 mi NNE 24.2 mph - N/A   Overcast
8:55 AM 37.4 °F 26.6 °F 26.6 °F 65% 30.21 in 5.0 mi North 21.9 mph 29.9 mph N/A   Haze
9:15 AM 37.4 °F 26.4 °F 26.6 °F 65% 30.23 in 8.0 mi NNE 23.0 mph 29.9 mph N/A   Overcast
9:35 AM 37.4 °F 26.6 °F 26.6 °F 65% 30.23 in 8.0 mi North 21.9 mph 28.8 mph N/A   Overcast
9:55 AM 37.4 °F 25.9 °F 26.6 °F 65% 30.23 in 9.0 mi NNE 25.3 mph - N/A   Overcast
10:15 AM 35.6 °F 24.5 °F 26.6 °F 70% 30.24 in 8.0 mi North 20.7 mph 32.2 mph N/A   Overcast
10:35 AM 35.6 °F 24.2 °F 28.4 °F 75% 30.24 in 7.0 mi NNE 21.9 mph 28.8 mph N/A   Overcast
10:55 AM 35.6 °F 24.2 °F 28.4 °F 75% 30.23 in 9.0 mi NNE 21.9 mph - N/A   Overcast
11:15 AM 35.6 °F 23.4 °F 30.2 °F 81% 30.20 in 8.0 mi NNE 25.3 mph 32.2 mph N/A   Overcast
11:35 AM 35.6 °F 23.4 °F 28.4 °F 75% 30.21 in 8.0 mi NNE 25.3 mph 35.7 mph N/A   Mostly Cloudy
11:55 AM 35.6 °F 23.7 °F 30.2 °F 81% 30.20 in 9.0 mi NNE 24.2 mph 29.9 mph N/A   Overcast
12:15 PM 35.6 °F 24.2 °F 30.2 °F 81% 30.23 in 9.0 mi NNE 21.9 mph - N/A   Overcast
12:35 PM 35.6 °F 24.0 °F 30.2 °F 81% 30.20 in 8.0 mi NNE 23.0 mph - N/A   Overcast
12:55 PM 35.6 °F 24.0 °F 32.0 °F 87% 30.19 in 8.0 mi NNE 23.0 mph 28.8 mph N/A   Overcast
1:15 PM 35.6 °F 24.2 °F 32.0 °F 87% 30.19 in 9.0 mi North 21.9 mph - N/A   Overcast
1:35 PM 35.6 °F 25.2 °F 32.0 °F 87% 30.20 in 7.0 mi North 18.4 mph 25.3 mph N/A   Overcast
1:55 PM 35.6 °F 24.2 °F 30.2 °F 81% 30.20 in 3.0 mi North 21.9 mph 29.9 mph N/A   Mostly Cloudy
2:15 PM 35.6 °F 25.5 °F 30.2 °F 81% 30.20 in 8.0 mi North 17.3 mph 29.9 mph N/A   Mostly Cloudy
2:35 PM 33.8 °F 21.0 °F 30.2 °F 87% 30.19 in 8.0 mi North 25.3 mph 31.1 mph N/A   Overcast
2:55 PM 33.8 °F 20.8 °F 30.2 °F 87% 30.19 in 8.0 mi North 26.5 mph - N/A   Overcast
3:15 PM 33.8 °F 23.5 °F 30.2 °F 87% 30.21 in 4.0 mi North 16.1 mph 32.2 mph N/A   Overcast
3:35 PM 32.0 °F 18.9 °F 30.2 °F 93% 30.21 in 5.0 mi North 24.2 mph 32.2 mph N/A   Overcast
3:55 PM 33.8 °F 21.9 °F 30.2 °F 87% 30.21 in 8.0 mi North 21.9 mph 33.4 mph N/A   Overcast
4:15 PM 33.8 °F 21.3 °F 30.2 °F 87% 30.20 in - North 24.2 mph 34.5 mph N/A   Overcast
4:35 PM 33.8 °F 21.9 °F 30.2 °F 87% 30.22 in 6.0 mi North 21.9 mph 35.7 mph N/A   Overcast
4:55 PM 33.8 °F 23.2 °F 30.2 °F 87% 30.24 in 8.0 mi North 17.3 mph 33.4 mph N/A   Overcast
5:15 PM 33.8 °F 21.9 °F 30.2 °F 87% 30.24 in 9.0 mi North 21.9 mph 34.5 mph N/A   Overcast
5:35 PM 32.0 °F 19.2 °F 28.4 °F 87% 30.24 in 9.0 mi North 23.0 mph 36.8 mph N/A   Overcast
5:55 PM 32.0 °F 20.8 °F 28.4 °F 87% 30.25 in 8.0 mi North 17.3 mph 36.8 mph N/A   Overcast
6:15 PM 32.0 °F 17.9 °F 28.4 °F 87% 30.26 in 8.0 mi North 28.8 mph 36.8 mph N/A   Overcast
6:35 PM 32.0 °F 19.2 °F 28.4 °F 87% 30.26 in 9.0 mi North 23.0 mph 39.1 mph N/A   Overcast
6:55 PM 32.0 °F 17.6 °F 28.4 °F 87% 30.28 in 8.0 mi North 29.9 mph 35.7 mph N/A   Overcast
7:15 PM 32.0 °F 18.4 °F 26.6 °F 80% 30.28 in 8.0 mi North 26.5 mph 38.0 mph N/A   Overcast
7:35 PM 32.0 °F 17.2 °F 28.4 °F 87% 30.29 in 7.0 mi North 32.2 mph - N/A   Overcast
7:55 PM 32.0 °F 17.4 °F 28.4 °F 87% 30.30 in 8.0 mi North 31.1 mph 38.0 mph N/A   Overcast
8:15 PM 32.0 °F 17.6 °F 28.4 °F 87% 30.30 in 7.0 mi NNE 29.9 mph 36.8 mph N/A   Overcast
8:35 PM 32.0 °F 17.2 °F 28.4 °F 87% 30.31 in 8.0 mi NNE 32.2 mph 39.1 mph N/A   Overcast
8:55 PM 32.0 °F 17.6 °F 28.4 °F 87% 30.32 in 5.0 mi NNE 29.9 mph 38.0 mph N/A   Overcast
9:15 PM 32.0 °F 17.0 °F 28.4 °F 87% 30.32 in 4.0 mi NNE 33.4 mph 39.1 mph N/A   Haze
9:35 PM 32.0 °F 17.4 °F 28.4 °F 87% 30.32 in 4.0 mi NNE 31.1 mph 40.3 mph N/A   Haze
9:55 PM 32.0 °F 17.4 °F 26.6 °F 80% 30.31 in 3.0 mi NNE 31.1 mph 41.4 mph N/A   Haze
10:15 PM 32.0 °F 17.4 °F 26.6 °F 80% 30.33 in 3.0 mi NNE 31.1 mph 38.0 mph N/A   Haze
10:35 PM 32.0 °F 17.4 °F 24.8 °F 75% 30.32 in - NNE 31.1 mph 38.0 mph N/A   Overcast
10:55 PM 32.0 °F 17.4 °F 26.6 °F 80% 30.32 in 5.0 mi NNE 31.1 mph - N/A   Haze
11:15 PM 33.8 °F 19.9 °F 26.6 °F 75% 30.31 in 7.0 mi NNE 31.1 mph 36.8 mph N/A   Overcast
11:35 PM 33.8 °F 19.9 °F 24.8 °F 70% 30.31 in 10.0 mi NNE 31.1 mph - N/A   Overcast
11:55 PM 32.0 °F 17.6 °F 24.8 °F 75% 30.32 in 10.0 mi NNE 29.9 mph - N/A   Overcast